FENGYUN 1C DEB, 32320

Orbit data source: Space-Track

FENGYUN 1C DEB, 32320 is space debris in SSO originally from a launch on Mon, 10 May 1999 UTC launched from the Taiyaun Space Center, China (TSC). Fengyun 1C debris stems from the Chinese weather satellite Fengyun-1C, which was intentionally destroyed by a Chinese anti-satellite missile in 2007. This event dramatically increased the amount of space debris, with thousands of trackable fragments posing hazards to satellites and human spaceflight. The Fengyun 1C debris cloud has become a focal point in discussions about space sustainability and the need for international regulations to prevent the creation of new debris.

Loading next visibility...
Identifier
32320, 1999-025CXM
Orbit
SSO
Country
Flag of CNCN / PRC
Related business
Manufacturer
Unknown
Mission
Spacecraft
Bus & Motor
Unknown
Mass
Unknown
Launch date (UTC)
1999-05-10 (26 years ago)
Launch vehicle
Unknown
Launch site
Taiyaun Space Center, China (TSC)
Object type
Payload
Rocket body
Debris
Shape & HBR
Unknown shape, 0.1 m
Radar Cross Section
Small (<0.1 m²)

Expand to show TLE details & history
Last TLE update: 23 hours ago

TLE from 23 hours ago
0 FENGYUN 1C DEB
1 32320U 99025CXM 25309.53995443  .00002603  00000-0  90250-3 0  9996
2 32320 100.3764 159.1112 0055319 152.0024 208.4150 14.35876379616398
Epoch: 2025-11-05T12:57Z
TLE epoch observation values (Epoch: 2025-11-05T12:57:32.062Z)
Latitude
-0.00006°
Longitude
-80.28354°
Altitude
809.879 km
Speed
7.43 km/s
True Right ascension
10h 36m 26s
True Declination
0° 00' 00"
Sunlit
Object was in daylight at epoch
Visualization orbit readout
Latitude
Unknown
Longitude
Unknown
Altitude
Unknown
Speed
Unknown
Apparent Right ascension
Unknown
Apparent Declination
Unknown
Sunlit
N/A
Visualization observer readout
Local Sidereal Time
08:15:34
Azimuth
Unknown
Elevation
Unknown
Doppler factor
Unknown
Orbital elements
Apogee altitude
808.92 km
Perigee altitude
729.841 km
Semi-major axis
7,147.518 km
Eccentricity
0.00553
Inclination
100.3764°
RAAN
159.1112°
Arg. of periapsis
152.0024°
True anomaly
208.11518°
Mean anomaly
208.415°
Eccentric anomaly
208.26491°
Mean motion
3.59178 °/min
Orbital period
100.23 mins
BSTAR
0.0009025
Loading maneuver chart data...
Computing Atmospheric mass density...

Documentation

Showing up to 5 results
|